• In Netherlands
  • List of Countries
  • For 7 days
  • Water Temperature
  • Satellite Maps
  • Weather Map
  • Weather Widgets
  • user-avatar
    Login

    Hourly Weather Satif

    Today, 25 June, Sunday

    Time Temperature Precipitation Wind Pressure Humidity
    00:00 +20°C° 0 mm 1 mps 674 mmHg 64%
    01:00 +20°C° 0 mm 1 mps 674 mmHg 65%
    02:00 +20°C° 0 mm 1 mps 673 mmHg 66%
    03:00 +19°C° 0 mm 1 mps 673 mmHg 66%
    04:00 +21°C° 0 mm 1 mps 674 mmHg 59%
    05:00 +23°C° 0 mm 1 mps 674 mmHg 51%
    06:00 +25°C° 0 mm 1 mps 675 mmHg 42%
    07:00 +28°C° 0 mm 2 mps 675 mmHg 36%
    08:00 +30°C° 0 mm 2 mps 676 mmHg 29%
    09:00 +34°C° 0 mm 2 mps 676 mmHg 22%
    10:00 +35°C° 0 mm 2 mps 676 mmHg 20%
    11:00 +35°C° 0 mm 3 mps 676 mmHg 18%
    12:00 +36°C° 0 mm 3 mps 676 mmHg 17%
    13:00 +36°C° 0 mm 3 mps 676 mmHg 17%
    14:00 +36°C° 0 mm 3 mps 676 mmHg 17%
    15:00 +36°C° 0 mm 3 mps 675 mmHg 17%
    16:00 +35°C° 0 mm 3 mps 675 mmHg 20%
    17:00 +32°C° 0 mm 2 mps 674 mmHg 23%
    18:00 +31°C° 0 mm 1 mps 674 mmHg 26%
    19:00 +29°C° 0 mm 1 mps 674 mmHg 31%
    20:00 +26°C° 0 mm 1 mps 673 mmHg 35%
    21:00 +24°C° 0 mm 1 mps 673 mmHg 39%
    22:00 +24°C° 0 mm 1 mps 673 mmHg 38%
    23:00 +24°C° 0 mm 2 mps 673 mmHg 37%

    Tomorrow, 26 June, Monday

    Time Temperature Precipitation Wind Pressure Humidity
    00:00 +24°C° 0 mm 2 mps 672 mmHg 37%
    01:00 +24°C° 0 mm 2 mps 672 mmHg 36%
    02:00 +24°C° 0 mm 2 mps 672 mmHg 36%
    03:00 +23°C° 0 mm 2 mps 671 mmHg 35%
    04:00 +24°C° 0 mm 2 mps 672 mmHg 33%
    05:00 +25°C° 0 mm 2 mps 672 mmHg 31%
    06:00 +26°C° 0 mm 2 mps 672 mmHg 29%
    07:00 +29°C° 0 mm 3 mps 673 mmHg 24%
    08:00 +33°C° 0 mm 3 mps 674 mmHg 19%
    09:00 +36°C° 0 mm 3 mps 674 mmHg 14%
    10:00 +37°C° 0 mm 3 mps 674 mmHg 13%
    11:00 +39°C° 0 mm 3 mps 675 mmHg 12%
    12:00 +40°C° 0 mm 3 mps 675 mmHg 11%
    13:00 +39°C° 0 mm 3 mps 674 mmHg 12%
    14:00 +38°C° 0 mm 3 mps 674 mmHg 13%
    15:00 +38°C° 0 mm 3 mps 673 mmHg 14%
    16:00 +36°C° 0 mm 2 mps 673 mmHg 18%
    17:00 +35°C° 0 mm 2 mps 673 mmHg 22%
    18:00 +32°C° 0 mm 1 mps 673 mmHg 26%
    19:00 +31°C° 0 mm 1 mps 673 mmHg 31%
    20:00 +29°C° 0 mm 2 mps 673 mmHg 36%
    21:00 +27°C° 0 mm 2 mps 673 mmHg 41%
    22:00 +27°C° 0 mm 2 mps 673 mmHg 41%
    23:00 +26°C° 0 mm 1 mps 673 mmHg 41%

    Day after tomorrow, 27 June, Tuesday

    Time Temperature Precipitation Wind Pressure Humidity
    00:00 +26°C° 0 mm 1 mps 672 mmHg 41%
    01:00 +26°C° 0 mm 1 mps 672 mmHg 40%
    02:00 +25°C° 0 mm 1 mps 672 mmHg 39%
    03:00 +25°C° 0 mm 1 mps 671 mmHg 38%
    04:00 +26°C° 0 mm 1 mps 672 mmHg 35%
    05:00 +27°C° 0 mm 1 mps 672 mmHg 33%
    06:00 +28°C° 0 mm 1 mps 672 mmHg 30%
    07:00 +31°C° 0 mm 1 mps 673 mmHg 25%
    08:00 +34°C° 0 mm 2 mps 674 mmHg 21%
    09:00 +37°C° 0 mm 2 mps 675 mmHg 16%
    10:00 +38°C° 0 mm 3 mps 675 mmHg 15%
    11:00 +39°C° 0 mm 3 mps 675 mmHg 14%
    12:00 +41°C° 0 mm 4 mps 675 mmHg 12%
    13:00 +40°C° 0 mm 4 mps 674 mmHg 14%
    14:00 +38°C° 0 mm 4 mps 674 mmHg 15%
    15:00 +38°C° 0 mm 4 mps 673 mmHg 16%
    16:00 +36°C° 0 mm 3 mps 673 mmHg 19%
    17:00 +34°C° 0 mm 2 mps 673 mmHg 23%
    18:00 +31°C° 0 mm 1 mps 672 mmHg 27%
    19:00 +30°C° 0 mm 1 mps 672 mmHg 29%
    20:00 +29°C° 0 mm 2 mps 672 mmHg 32%
    21:00 +27°C° 0 mm 2 mps 672 mmHg 35%
    22:00 +27°C° 0 mm 2 mps 671 mmHg 34%
    23:00 +27°C° 0 mm 2 mps 671 mmHg 34%

    28 June, Wednesday

    Time Temperature Precipitation Wind Pressure Humidity
    00:00 +26°C° 0 mm 2 mps 671 mmHg 34%
    01:00 +26°C° 0 mm 2 mps 671 mmHg 36%
    02:00 +25°C° 0 mm 1 mps 670 mmHg 38%
    03:00 +24°C° 0 mm 1 mps 670 mmHg 40%
    04:00 +25°C° 0 mm 1 mps 670 mmHg 37%
    05:00 +26°C° 0 mm 1 mps 671 mmHg 34%
    06:00 +27°C° 0 mm 1 mps 671 mmHg 30%
    07:00 +29°C° 0 mm 2 mps 672 mmHg 27%
    08:00 +32°C° 0 mm 2 mps 672 mmHg 23%
    09:00 +35°C° 0 mm 3 mps 673 mmHg 20%
    10:00 +36°C° 0 mm 4 mps 673 mmHg 19%
    11:00 +37°C° 0 mm 5 mps 673 mmHg 17%
    12:00 +39°C° 0 mm 5 mps 673 mmHg 16%
    13:00 +38°C° 0 mm 6 mps 673 mmHg 17%
    14:00 +38°C° 0 mm 6 mps 672 mmHg 18%
    15:00 +38°C° 0 mm 6 mps 672 mmHg 18%
    16:00 +35°C° 0 mm 5 mps 672 mmHg 25%
    17:00 +33°C° 0 mm 4 mps 671 mmHg 31%
    18:00 +30°C° 0 mm 3 mps 671 mmHg 37%
    19:00 +27°C° 0 mm 3 mps 671 mmHg 49%
    20:00 +25°C° 0 mm 2 mps 671 mmHg 60%
    21:00 +21°C° 0 mm 2 mps 671 mmHg 71%
    22:00 +21°C° 0 mm 2 mps 671 mmHg 72%
    23:00 +22°C° 0 mm 1 mps 671 mmHg 72%

    29 June, Thursday

    Time Temperature Precipitation Wind Pressure Humidity
    00:00 +21°C° 0 mm 1 mps 671 mmHg 72%
    01:00 +21°C° 0 mm 1 mps 670 mmHg 74%
    02:00 +20°C° 0 mm 1 mps 670 mmHg 76%
    03:00 +19°C° 0 mm 1 mps 669 mmHg 78%
    04:00 +20°C° 0 mm 1 mps 670 mmHg 70%
    05:00 +19°C° 0 mm 0 mps 670 mmHg 63%
    06:00 +21°C° 0 mm 0 mps 671 mmHg 56%
    07:00 +25°C° 0 mm 1 mps 671 mmHg 45%
    08:00 +28°C° 0 mm 1 mps 672 mmHg 34%
    09:00 +31°C° 0 mm 1 mps 673 mmHg 23%
    10:00 +32°C° 0 mm 2 mps 673 mmHg 20%
    11:00 +34°C° 0 mm 3 mps 673 mmHg 18%
    12:00 +35°C° 0 mm 4 mps 673 mmHg 15%
    13:00 +35°C° 0 mm 4 mps 673 mmHg 17%
    14:00 +35°C° 0 mm 5 mps 672 mmHg 19%
    15:00 +34°C° 0 mm 5 mps 672 mmHg 21%
    16:00 +33°C° 0 mm 4 mps 672 mmHg 26%
    17:00 +30°C° 0 mm 3 mps 672 mmHg 31%
    18:00 +29°C° 0 mm 2 mps 671 mmHg 37%
    19:00 +26°C° 0 mm 2 mps 671 mmHg 47%
    20:00 +24°C° 0 mm 2 mps 671 mmHg 58%
    21:00 +21°C° 0 mm 2 mps 671 mmHg 68%
    22:00 +20°C° 0 mm 2 mps 670 mmHg 73%
    23:00 +19°C° 0 mm 2 mps 670 mmHg 78%

    30 June, Friday

    Time Temperature Precipitation Wind Pressure Humidity
    00:00 +18°C° 0 mm 2 mps 670 mmHg 83%
    01:00 +19°C° 0 mm 1 mps 669 mmHg 82%
    02:00 +19°C° 0 mm 1 mps 669 mmHg 82%
    03:00 +18°C° 0 mm 1 mps 669 mmHg 81%
    04:00 +19°C° 0 mm 1 mps 669 mmHg 76%
    05:00 +20°C° 0 mm 1 mps 670 mmHg 71%
    06:00 +21°C° 0 mm 1 mps 670 mmHg 66%
    07:00 +23°C° 0 mm 1 mps 671 mmHg 57%
    08:00 +26°C° 0 mm 1 mps 671 mmHg 47%
    09:00 +28°C° 0 mm 1 mps 672 mmHg 37%
    10:00 +30°C° 0 mm 2 mps 672 mmHg 33%
    11:00 +31°C° 0 mm 3 mps 672 mmHg 29%
    12:00 +34°C° 0 mm 3 mps 672 mmHg 25%
    13:00 +33°C° 0 mm 4 mps 672 mmHg 27%
    14:00 +33°C° 0 mm 4 mps 672 mmHg 30%
    15:00 +32°C° 0 mm 5 mps 671 mmHg 32%
    16:00 +29°C° 0 mm 4 mps 671 mmHg 42%
    17:00 +26°C° 0 mm 4 mps 671 mmHg 51%
    18:00 +23°C° 0 mm 4 mps 671 mmHg 60%
    19:00 +21°C° 0 mm 4 mps 672 mmHg 65%
    20:00 +20°C° 0 mm 3 mps 672 mmHg 70%
    21:00 +18°C° 0 mm 3 mps 673 mmHg 76%
    22:00 +18°C° 0 mm 3 mps 673 mmHg 77%
    23:00 +17°C° 0 mm 2 mps 673 mmHg 79%
    Show more